sat.trackr.live / text

‹ back to catalog

STARLINK-11080 [DTC]

NORAD 60727 · 2024-152H

PAYLOAD ACTIVE UNKNOWN

§ Identity

Operator
Country
US
Launch date
2024-08-28
Launch site
AFETR
Launch vehicle
Mass (kg)
RCS (m²)

Purposes: comms

External: N2YO · Heavens-Above · Gunter

§ Orbital elements

Epoch: 2026-09-21T07:54:34.800480Z

Period
91.74 min
Inclination
53.1602°
Eccentricity
0.0000995
Mean motion
15.69696101 rev/d
Perigee alt
359.1 km
Apogee alt
360.4 km
Semi-major
6,737.9 km
B*
-1.2740e-5
RAAN
231.7405°
Arg perigee
98.4263°
Mean anomaly
261.6868°
Rev number
11,969

§ Raw data

STARLINK-11080 [DTC]1 60727U 24152H   26264.32956945 -.00002130  00000+0 -12740-4 0  99942 60727  53.1602 231.7405 0000995  98.4263 261.6868 15.69696101119695

JSON: /api/v1/satellites/60727 · /tle

For live sub-satellite position, see the globe view (requires WebGL).

§ Visibility from observer

Set your observer location to see the next 7 days of passes ≥ 10°. The values pass through the URL so the page stays shareable.

No JS? Fill the form by hand. The geolocation button needs JavaScript.